Weather reports worldwide

Advertisment
Solenzara, France (7765): temperature & dewpoint: 10.01.2021 06:00:00 - 16.01.2021 06:00:00 (CET)Solenzara, France (7765): temperature 5cm: 10.01.2021 06:00:00 - 16.01.2021 06:00:00 (CET)Solenzara, France (7765): temperature -20cm: 10.01.2021 06:00:00 - 16.01.2021 06:00:00 (CET)Solenzara, France (7765): wind speed & gusts: 10.01.2021 06:00:00 - 16.01.2021 06:00:00 (CET)Solenzara, France (7765): wind direction: 10.01.2021 06:00:00 - 16.01.2021 06:00:00 (CET)Solenzara, France (7765): reduced air pressure: 10.01.2021 06:00:00 - 16.01.2021 06:00:00 (CET)Solenzara, France (7765): visibility: 10.01.2021 06:00:00 - 16.01.2021 06:00:00 (CET)Solenzara, France (7765): sunshine duration: 10.01.2021 06:00:00 - 16.01.2021 06:00:00 (CET)Solenzara, France (7765): precipitation: 10.01.2021 06:00:00 - 16.01.2021 06:00:00 (CET)
Date & Time tt [°C] td [°C] tt 5cm [°C] tt -20cm [°C] ff [km/h] ff [kn] fx [km/h] fx [kn] dd ppp [hPa] vv [km] sd [min] rr [mm]
16.01.2021 06:00:00 7,5 0,9 6,5 10,1 12 6 21 11 NNW 1018,7 60 0 0,0
16.01.2021 05:00:00 8,2 1,3 7,6 10,1 13 7 26 14 NNW 1018,3 60 0 0,0
16.01.2021 04:00:00 8,4 1,5 7,8 10,1 14 8 26 14 NNW 1017,8 60 0 0,0
16.01.2021 03:00:00 8,7 2,7 8,1 10,1 15 8 25 13 N 1017,4 60 0 0,0
16.01.2021 02:00:00 9,0 3,6 8,4 10,2 15 8 24 13 N 1016,6 60 0 0,0
16.01.2021 01:00:00 9,5 3,9 8,7 10,2 11 6 24 13 NNW 1016,2 60 0 0,0
16.01.2021 00:00:00 9,7 4,5 8,6 10,2 16 8 23 12 N 1016,0 60 0 0,0
15.01.2021 23:00:00 8,9 4,5 7,2 10,2 11 6 18 10 NNW 1015,5 60 0 0,0
15.01.2021 22:00:00 7,7 5,7 7,1 10,3 9 5 16 9 NW 1015,1 43 0 0,0
15.01.2021 21:00:00 8,3 6,4 6,9 10,3 9 5 20 11 W 1014,4 60 0 0,0
15.01.2021 20:00:00 7,8 6,4 6,8 10,3 11 6 17 9 W 1014,1 60 0 0,0
15.01.2021 19:00:00 8,3 6,8 5,8 10,2 8 4 13 7 WNW 1013,9 53 0 0,0
15.01.2021 18:00:00 9,1 6,5 5,9 10,2 0 0 6 3 N 1013,2 59 0 0,0
15.01.2021 17:00:00 10,9 7,6 10,0 10,1 3 1 6 4 W 1013,0 59 0 0,0
15.01.2021 16:00:00 11,3 7,0 11,4 10,1 3 2 7 4 NE 1012,6 60 0 0,0
15.01.2021 15:00:00 11,5 6,2 11,3 10,0 2 1 15 8 NW 1012,2 60 0 0,0
15.01.2021 14:00:00 11,8 7,3 12,3 10,0 9 5 17 9 NNE 1012,2 60 0 0,0
15.01.2021 13:00:00 12,1 7,0 12,1 9,9 13 7 18 10 NE 1012,1 60 0 0,0
15.01.2021 12:00:00 11,0 7,5 11,0 9,9 4 2 17 9 NNW 1012,7 60 0 0,0
15.01.2021 11:00:00 10,7 8,5 8,8 9,9 16 9 26 14 N 1012,7 60 0 0,0
15.01.2021 10:00:00 8,8 7,7 8,4 9,9 8 4 12 7 NNW 1012,2 16 0 0,0
15.01.2021 09:00:00 8,9 8,1 8,3 10,0 8 4 29 16 N 1011,5 6 0 0,0
15.01.2021 08:00:00 9,4 8,5 8,1 10,0 17 9 35 19 N 1010,4 2,4 0 0,0
15.01.2021 07:00:00 9,0 7,6 7,9 10,0 7 4 13 7 NW 1009,2 10 0 0,0
15.01.2021 06:00:00 9,6 6,5 8,8 10,0 8 4 14 8 NW 1008,8 48 0 0,0
15.01.2021 05:00:00 9,8 5,4 7,8 10,0 7 4 17 9 W 1009,1 60 0 0,0
15.01.2021 04:00:00 9,0 6,1 8,1 10,0 3 2 16 8 N 1010,0 56 0 0,0
15.01.2021 03:00:00 9,4 5,6 8,4 10,0 8 4 19 10 NNW 1010,8 60 0 0,0
15.01.2021 02:00:00 9,4 4,8 7,6 10,0 11 6 22 12 W 1010,7 60 0 0,0
15.01.2021 01:00:00 8,7 5,6 7,6 10,0 10 5 21 12 W 1010,9 60 0 0,0
15.01.2021 00:00:00 9,2 5,9 7,8 10,0 11 6 20 11 W 1011,9 54 0 0,0
14.01.2021 23:00:00 9,5 6,6 8,5 10,0 10 5 16 8 W 1012,0 59 0 0,0
14.01.2021 22:00:00 10,1 7,3 9,5 10,0 8 5 13 7 W 1011,5 55 0 0,0
14.01.2021 21:00:00 10,8 8,4 10,2 9,9 7 4 13 7 W 1011,4 57 0 0,0
14.01.2021 20:00:00 11,3 8,9 10,7 9,9 4 2 7 4 W 1011,1 16 0 0,0
14.01.2021 19:00:00 11,7 8,7 11,2 9,8 5 3 8 5 W 1010,7 19 0 0,0
14.01.2021 18:00:00 12,1 8,9 11,6 9,7 4 2 6 4 W 1010,4 18 0 0,0
14.01.2021 17:00:00 12,6 8,9 12,2 9,6 4 2 9 5 NW 1009,9 57 0 0,0
14.01.2021 16:00:00 13,2 8,9 13,5 9,5 7 4 19 11 ENE 1009,7 60 0 0,0
14.01.2021 15:00:00 14,0 9,0 17,1 9,4 13 7 20 11 NE 1008,9 60 0 0,0
14.01.2021 14:00:00 14,2 9,4 18,8 9,3 11 6 16 9 NE 1008,5 60 0 0,0
14.01.2021 13:00:00 14,4 8,8 19,2 9,2 10 5 18 10 ESE 1008,8 60 0 0,0
14.01.2021 12:00:00 14,2 8,6 19,3 9,2 9 5 15 8 ESE 1009,9 44 0 0,0
14.01.2021 11:00:00 14,1 9,1 18,1 9,2 3 2 10 5 NNW 1011,3 20 0 0,0
14.01.2021 10:00:00 11,3 6,2 11,2 9,2 5 3 15 8 W 1011,3 57 0 0,0
14.01.2021 09:00:00 8,1 3,9 5,6 9,3 10 5 19 10 W 1011,5 59 0 0,0
14.01.2021 08:00:00 6,5 3,3 4,5 9,3 11 6 18 10 W 1012,1 60 0 0,0
14.01.2021 07:00:00 5,7 3,0 3,4 9,3 10 5 15 8 W 1012,0 60 0 0,0
14.01.2021 06:00:00 6,2 3,2 4,4 9,4 10 5 17 9 W 1011,5 60 0 0,0
14.01.2021 05:00:00 5,5 3,5 3,9 9,4 11 6 16 8 W 1011,8 60 0 0,0
14.01.2021 04:00:00 5,9 3,4 4,7 9,5 11 6 16 8 W 1012,1 60 0 0,0
14.01.2021 03:00:00 5,8 3,3 4,6 9,5 10 6 16 8 W 1013,4 60 0 0,0
14.01.2021 02:00:00 6,2 3,0 4,9 9,5 9 5 16 9 NW 1014,1 60 0 0,0
14.01.2021 01:00:00 7,0 3,4 5,4 9,5 9 5 18 10 W 1014,7 60 0 0,0
14.01.2021 00:00:00 6,8 3,8 5,5 9,6 11 6 19 10 W 1015,2 60 0 0,0
13.01.2021 23:00:00 6,6 3,6 5,5 9,6 7 4 18 10 WNW 1015,9 60 0 0,0
13.01.2021 22:00:00 7,0 4,5 6,0 9,6 11 6 22 12 W 1015,8 60 0 0,0
13.01.2021 21:00:00 7,3 5,1 6,3 9,6 10 6 19 10 W 1016,0 60 0 0,0
13.01.2021 20:00:00 7,4 5,4 6,4 9,5 11 6 17 9 W 1016,1 60 0 0,0
13.01.2021 19:00:00 7,7 5,8 6,7 9,5 10 5 15 8 W 1016,2 55 0 0,0
13.01.2021 18:00:00 8,4 6,4 7,3 9,4 9 5 14 8 W 1015,5 50 0 0,0
13.01.2021 17:00:00 10,3 7,2 8,4 9,3 9 5 11 6 N 1015,3 60 0 0,0
13.01.2021 16:00:00 12,7 7,4 12,8 9,1 6 3 16 9 SE 1014,9 59 0 0,0
13.01.2021 15:00:00 13,2 7,6 16,8 9,0 10 6 16 8 S 1014,6 60 0 1,9
13.01.2021 14:00:00 13,0 7,4 17,9 8,9 9 5 14 7 ESE 1014,8 60 0 0,0
13.01.2021 13:00:00 13,3 7,3 18,0 8,9 9 5 16 8 SE 1015,5 60 0 0,0
13.01.2021 12:00:00 13,1 6,9 18,1 8,9 9 5 13 7 ESE 1015,8 18 0 0,0
13.01.2021 11:00:00 12,6 5,5 16,5 8,9 3 1 9 5 SSW 1016,3 44 0 0,0
13.01.2021 10:00:00 10,0 4,6 9,3 8,9 3 1 16 8 NW 1016,3 7 0 0,0
13.01.2021 09:00:00 6,4 2,1 3,9 8,9 10 6 20 11 W 1015,5 60 0 0,0
13.01.2021 08:00:00 4,6 1,6 3,7 9,0 12 7 21 11 W 1015,0 60 0 0,0
13.01.2021 07:00:00 4,6 1,6 3,6 9,0 13 7 22 12 W 1014,7 60 0 0,0
13.01.2021 06:00:00 4,6 1,4 3,6 9,1 12 7 22 12 W 1014,4 60 0 0,0
13.01.2021 05:00:00 4,6 1,4 3,7 9,1 12 7 21 11 W 1014,1 60 0 0,0
13.01.2021 04:00:00 4,7 1,2 3,6 9,1 12 7 22 12 W 1013,7 60 0 0,0
13.01.2021 03:00:00 4,6 1,3 3,8 9,2 13 7 24 13 W 1014,2 60 0 0,0
13.01.2021 02:00:00 4,7 1,4 3,7 9,2 13 7 21 11 W 1014,1 60 0 0,0
13.01.2021 01:00:00 5,0 1,5 3,5 9,3 11 6 18 10 W 1014,2 60 0 0,0
13.01.2021 00:00:00 4,6 1,4 3,2 9,3 12 7 16 9 W 1014,5 60 0 0,0
12.01.2021 23:00:00 5,3 1,4 4,1 9,4 7 4 16 9 W 1014,3 60 0 0,0
12.01.2021 22:00:00 5,0 1,7 4,0 9,4 10 6 21 11 WNW 1014,3 60 0 0,0
12.01.2021 21:00:00 5,2 1,5 4,3 9,4 12 6 22 12 W 1014,5 60 0 0,0
12.01.2021 20:00:00 5,2 1,7 4,2 9,4 12 7 22 12 W 1014,7 57 0 0,0
12.01.2021 19:00:00 5,6 1,9 4,6 9,4 13 7 22 12 W 1014,9 60 0 0,0
12.01.2021 18:00:00 5,7 2,3 4,8 9,3 11 6 20 11 W 1015,4 57 0 0,0
12.01.2021 17:00:00 7,1 2,6 6,3 9,2 8 4 16 9 W 1015,3 49 0 0,0
12.01.2021 16:00:00 10,3 1,4 10,5 9,2 10 5 16 8 S 1015,6 58 0 0,0
12.01.2021 15:00:00 10,7 1,0 14,0 9,1 10 6 18 10 S 1016,1 57 0 0,0
12.01.2021 14:00:00 10,8 1,1 15,1 9,0 9 5 17 9 SSE 1016,2 60 0 0,0
12.01.2021 13:00:00 11,2 2,5 15,8 9,0 8 4 14 8 SE 1016,9 20 0 0,0
12.01.2021 12:00:00 10,7 1,0 15,4 9,0 5 3 13 7 ENE 1017,6 51 0 0,0
12.01.2021 11:00:00 10,4 0,4 12,5 9,1 4 2 13 7 NNW 1018,0 33 0 0,0
12.01.2021 10:00:00 7,1 -0,6 7,6 9,1 8 5 18 10 W 1017,5 60 0 0,0
12.01.2021 09:00:00 4,8 -1,0 2,5 9,2 10 6 21 12 W 1016,9 53 0 0,0
12.01.2021 08:00:00 3,5 -1,5 2,3 9,2 12 7 18 10 W 1016,7 13 0 0,0
12.01.2021 07:00:00 3,7 -1,5 2,5 9,3 10 5 18 10 W 1016,5 60 0 0,0
12.01.2021 06:00:00 4,5 -2,2 2,0 9,3 8 4 15 8 NW 1016,3 60 0 0,0
12.01.2021 05:00:00 3,0 -0,6 1,7 9,4 9 5 16 8 W 1016,2 60 0 0,0
12.01.2021 04:00:00 2,8 0,4 1,5 9,4 9 5 17 9 W 1016,5 60 0 0,0
12.01.2021 03:00:00 2,9 0,9 0,8 9,5 7 4 12 6 WNW 1017,0 60 0 0,0
12.01.2021 02:00:00 3,9 1,3 2,7 9,5 7 4 17 9 W 1016,8 60 0 0,0
12.01.2021 01:00:00 4,3 1,7 3,4 9,6 8 4 17 9 W 1016,8 59 0 0,0
12.01.2021 00:00:00 4,6 1,8 3,7 9,6 9 5 16 9 W 1017,0 59 0 0,0
11.01.2021 23:00:00 4,0 1,4 2,7 9,6 8 4 15 8 WNW 1017,3 45 0 0,0
11.01.2021 22:00:00 3,9 1,6 2,6 9,7 10 6 18 10 W 1017,1 59 0 0,0
11.01.2021 21:00:00 3,8 1,3 2,7 9,7 9 5 15 8 W 1016,8 56 0 0,0
11.01.2021 20:00:00 4,4 1,4 2,9 9,8 9 5 16 8 W 1016,7 48 0 0,0
11.01.2021 19:00:00 4,0 1,7 2,9 9,8 9 5 16 9 W 1016,4 51 0 0,0
11.01.2021 18:00:00 5,2 0,2 3,5 9,8 6 4 18 10 NW 1016,2 60 0 0,0
11.01.2021 17:00:00 6,8 0,0 6,1 9,8 13 7 22 12 N 1016,2 60 0 0,0
11.01.2021 16:00:00 6,9 1,0 6,4 9,8 8 4 24 13 N 1016,0 59 0 0,0
11.01.2021 15:00:00 7,7 0,9 8,1 9,8 13 7 26 14 N 1015,8 57 0 0,0
11.01.2021 14:00:00 7,6 2,5 7,1 9,8 10 5 19 10 NNE 1015,4 60 0 0,0
11.01.2021 13:00:00 6,8 2,9 7,0 9,8 11 6 28 15 W 1015,9 60 0 0,0
11.01.2021 12:00:00 7,7 2,0 7,3 9,8 7 4 39 21 NW 1016,7 59 0 0,0
11.01.2021 11:00:00 7,8 1,8 7,1 9,8 10 5 26 14 N 1016,9 58 0 0,0
11.01.2021 10:00:00 6,9 4,7 5,6 9,9 6 4 12 6 N 1016,3 59 0 0,0
11.01.2021 09:00:00 6,2 3,9 5,0 9,9 6 3 18 10 N 1015,6 60 0 0,0
11.01.2021 08:00:00 5,8 3,1 4,5 9,9 9 5 18 10 W 1014,9 60 0 0,0
11.01.2021 07:00:00 5,3 3,0 3,4 9,9 6 3 16 9 WNW 1014,4 60 0 0,0
11.01.2021 06:00:00 6,0 2,3 3,6 9,9 4 2 22 12 NNW 1013,9 60 0 0,0
11.01.2021 05:00:00 6,5 2,9 4,7 10,0 6 4 16 8 NW 1014,0 60 0 0,0
11.01.2021 04:00:00 6,6 4,9 5,8 10,0 4 2 10 6 WNW 1013,8 60 0 0,0
11.01.2021 03:00:00 6,6 5,4 5,9 10,0 6 3 10 5 W 1013,9 60 0 0,0
11.01.2021 02:00:00 6,9 5,7 6,2 10,0 4 2 12 7 WNW 1013,6 20 0 0,0
11.01.2021 01:00:00 7,1 5,6 6,4 10,0 7 4 13 7 NNW 1013,6 27 0 0,0
11.01.2021 00:00:00 7,2 5,7 6,4 10,0 5 3 9 5 NW 1013,4 58 0 0,0
10.01.2021 23:00:00 7,3 5,8 6,5 10,0 5 3 9 5 WNW 1013,4 53 0 0,0
10.01.2021 22:00:00 7,6 6,4 6,9 10,0 5 3 8 5 NW 1013,1 19 0 0,0
10.01.2021 21:00:00 7,7 6,3 6,8 10,0 4 2 11 6 WNW 1012,7 11 0 0,0
10.01.2021 20:00:00 7,7 6,2 6,8 10,0 4 2 9 5 N 1012,2 11 0 0,0
10.01.2021 19:00:00 7,7 6,2 6,9 9,9 5 3 18 10 NW 1011,7 15 0 0,0
10.01.2021 18:00:00 7,9 6,0 7,0 9,9 13 7 22 12 N 1011,1 28 0 0,0
10.01.2021 17:00:00 8,6 5,7 8,0 9,9 11 6 23 13 N 1010,7 59 0 0,0
10.01.2021 16:00:00 8,7 6,0 8,1 9,9 11 6 29 15 N 1010,4 52 0 0,0
10.01.2021 15:00:00 9,0 6,4 8,8 9,8 13 7 26 14 N 1009,8 50 0 0,0
10.01.2021 14:00:00 9,6 7,0 9,3 9,7 16 9 25 13 NNE 1009,4 54 0 0,0
10.01.2021 13:00:00 9,9 7,5 10,0 9,7 10 5 14 8 ENE 1009,6 60 0 0,0
10.01.2021 12:00:00 9,6 7,0 10,0 9,7 4 2 8 4 NE 1010,0 60 0 0,0
10.01.2021 11:00:00 9,0 7,8 7,9 9,7 0 0 8 4 N 1010,7 60 0 0,0
10.01.2021 10:00:00 8,1 7,3 7,6 9,7 4 2 10 6 NW 1011,0 7 0 0,0
10.01.2021 09:00:00 7,9 7,1 7,4 9,7 4 2 11 6 N 1010,5 9 0 0,0
10.01.2021 08:00:00 7,7 6,9 7,2 9,7 6 3 10 6 NW 1009,7 20 0 0,0
10.01.2021 07:00:00 7,6 7,0 7,1 9,7 3 2 10 5 NNW 1009,9 14 0 0,0
10.01.2021 06:00:00 7,7 7,1 6,9 9,7 5 3 10 5 W 1009,9 11 0 0,8

tt = temperature
td = dewpoint
tt 5cm = temperature 5cm
tt -20cm = temperature -20cm
ff = wind speed
fx = gusts
dd = wind direction
ppp = reduced air pressure
vv = visibility
sd = sunshine duration
rr = precipitation

Next stations